| time (UTC) | temp F | wind direction | speed knots | gust knots | rain 1hr in | rain 24hr in | rain mn in | humidity % | barometer mb |
| 20260505064537 | 46 | 315 | 6.1 | 13.0 | 0.00 | 0.05 | 0.00 | 82 | 1008.4 |
| 20260505064017 | 46 | 315 | 4.3 | 12.2 | 0.00 | 0.05 | 0.00 | 84 | 1008.4 |
| 20260505063517 | 46 | 292 | 3.5 | 12.2 | 0.00 | 0.05 | 0.00 | 86 | 1008.5 |
| 20260505063016 | 47 | 292 | 0.9 | 2.6 | 0.00 | 0.05 | 0.00 | 87 | 1008.0 |
| 20260505062537 | 47 | 292 | 0.9 | 1.7 | 0.00 | 0.05 | 0.00 | 86 | 1007.8 |
| 20260505062017 | 47 | 0.0 | 0.0 | 0.00 | 0.05 | 0.00 | 85 | 1007.8 | |
| 20260505061517 | 47 | 0.0 | 0.0 | 0.00 | 0.05 | 0.00 | 86 | 1007.8 | |
| 20260505061017 | 47 | 0.0 | 0.0 | 0.00 | 0.05 | 0.00 | 86 | 1007.7 | |
| 20260505060516 | 47 | 0.0 | 0.0 | 0.00 | 0.05 | 0.00 | 86 | 1007.7 | |
| 20260505060024 | 46 | 0.0 | 0.0 | 0.00 | 0.05 | 0.00 | 87 | 1007.6 | |
| 20260505055517 | 46 | 0.0 | 0.9 | 0.00 | 0.05 | 0.05 | 88 | 1007.5 | |
| 20260505055018 | 46 | 0.0 | 0.0 | 0.00 | 0.05 | 0.05 | 89 | 1007.5 | |
| 20260505054518 | 45 | 0.0 | 0.0 | 0.00 | 0.05 | 0.05 | 88 | 1007.5 | |
| 20260505054017 | 45 | 0.0 | 0.0 | 0.00 | 0.05 | 0.05 | 88 | 1007.3 | |
| 20260505053517 | 46 | 0.0 | 0.0 | 0.00 | 0.05 | 0.05 | 86 | 1007.0 | |
| 20260505053037 | 46 | 0.0 | 0.0 | 0.00 | 0.05 | 0.05 | 85 | 1007.0 | |
| 20260505052517 | 46 | 0.0 | 0.0 | 0.00 | 0.05 | 0.05 | 85 | 1007.0 | |
| 20260505052017 | 46 | 0.0 | 0.0 | 0.00 | 0.05 | 0.05 | 84 | 1006.8 | |
| 20260505051517 | 46 | 0.0 | 1.7 | 0.00 | 0.05 | 0.05 | 85 | 1006.8 | |
| 20260505051018 | 46 | 0.0 | 0.9 | 0.00 | 0.05 | 0.05 | 85 | 1006.7 | |
| 20260505050517 | 46 | 180 | 0.9 | 1.7 | 0.00 | 0.05 | 0.05 | 86 | 1006.7 |
| 20260505041517 | 47 | 180 | 1.7 | 2.6 | 0.01 | 0.05 | 0.05 | 83 | 1006.9 |
| 20260505041037 | 47 | 180 | 2.6 | 4.3 | 0.01 | 0.05 | 0.05 | 82 | 1006.8 |
| 20260505040517 | 48 | 202 | 3.5 | 4.3 | 0.02 | 0.05 | 0.05 | 82 | 1006.8 |
| 20260505040037 | 48 | 180 | 2.6 | 5.2 | 0.02 | 0.05 | 0.05 | 82 | 1006.8 |
| 20260505035517 | 48 | 180 | 2.6 | 5.2 | 0.03 | 0.05 | 0.05 | 82 | 1006.6 |
| 20260505035017 | 48 | 180 | 1.7 | 3.5 | 0.03 | 0.05 | 0.05 | 83 | 1006.6 |
| 20260505034517 | 48 | 180 | 2.6 | 6.1 | 0.03 | 0.05 | 0.05 | 83 | 1006.6 |
| 20260505034017 | 48 | 202 | 4.3 | 7.0 | 0.03 | 0.05 | 0.05 | 83 | 1006.6 |
| 20260505033517 | 48 | 202 | 4.3 | 6.1 | 0.03 | 0.05 | 0.05 | 84 | 1006.6 |
| 20260505033017 | 49 | 180 | 4.3 | 6.1 | 0.04 | 0.05 | 0.05 | 84 | 1006.5 |
| 20260505032537 | 49 | 180 | 5.2 | 7.0 | 0.03 | 0.04 | 0.04 | 83 | 1006.4 |
| 20260505032017 | 49 | 180 | 5.2 | 7.8 | 0.03 | 0.04 | 0.04 | 82 | 1006.4 |
| 20260505031517 | 49 | 180 | 4.3 | 7.0 | 0.03 | 0.04 | 0.04 | 81 | 1006.3 |
| 20260505031017 | 49 | 180 | 4.3 | 7.0 | 0.03 | 0.04 | 0.04 | 81 | 1006.2 |
| 20260505030517 | 49 | 180 | 4.3 | 7.8 | 0.02 | 0.03 | 0.03 | 80 | 1006.1 |
| 20260505030017 | 50 | 180 | 6.1 | 8.7 | 0.02 | 0.03 | 0.03 | 79 | 1006.0 |
| 20260505025518 | 50 | 180 | 6.1 | 9.6 | 0.01 | 0.02 | 0.02 | 78 | 1006.0 |
| 20260505025037 | 50 | 180 | 5.2 | 7.8 | 0.01 | 0.02 | 0.02 | 77 | 1005.8 |
| 20260505024517 | 50 | 202 | 6.1 | 9.6 | 0.01 | 0.02 | 0.02 | 75 | 1005.6 |
| 20260505024018 | 51 | 202 | 7.0 | 10.4 | 0.01 | 0.02 | 0.02 | 72 | 1005.4 |
| 20260505023517 | 51 | 202 | 7.0 | 10.4 | 0.01 | 0.02 | 0.02 | 71 | 1005.4 |
| 20260505023017 | 51 | 202 | 5.2 | 6.1 | 0.00 | 0.01 | 0.01 | 72 | 1005.2 |
| 20260505022517 | 51 | 202 | 3.5 | 5.2 | 0.00 | 0.01 | 0.01 | 71 | 1005.1 |
| 20260505022017 | 51 | 225 | 3.5 | 4.3 | 0.00 | 0.01 | 0.01 | 71 | 1005.2 |
| 20260505021517 | 51 | 247 | 3.5 | 5.2 | 0.00 | 0.01 | 0.01 | 70 | 1005.0 |
| 20260505021017 | 51 | 247 | 4.3 | 7.0 | 0.00 | 0.01 | 0.01 | 70 | 1005.0 |
| 20260505020517 | 51 | 247 | 3.5 | 6.1 | 0.00 | 0.01 | 0.01 | 71 | 1005.0 |
| 20260505020059 | 50 | 247 | 3.5 | 4.3 | 0.00 | 0.01 | 0.01 | 73 | 1005.0 |
| 20260505015517 | 50 | 270 | 1.7 | 4.3 | 0.00 | 0.01 | 0.01 | 73 | 1005.1 |
| 20260505015017 | 50 | 270 | 2.6 | 4.3 | 0.00 | 0.01 | 0.01 | 74 | 1004.9 |
| 20260505014517 | 50 | 292 | 1.7 | 3.5 | 0.00 | 0.01 | 0.01 | 75 | 1004.7 |
| 20260505014037 | 50 | 292 | 1.7 | 5.2 | 0.00 | 0.01 | 0.01 | 74 | 1004.7 |
| 20260505013517 | 51 | 270 | 4.3 | 7.8 | 0.00 | 0.01 | 0.01 | 72 | 1004.5 |
| 20260505013017 | 51 | 270 | 4.3 | 9.6 | 0.00 | 0.01 | 0.01 | 70 | 1004.5 |
| 20260505012517 | 52 | 270 | 5.2 | 8.7 | 0.00 | 0.01 | 0.01 | 69 | 1004.5 |
| 20260505012017 | 52 | 292 | 3.5 | 7.0 | 0.00 | 0.01 | 0.01 | 69 | 1004.5 |
| 20260505011517 | 52 | 292 | 4.3 | 7.0 | 0.00 | 0.01 | 0.01 | 69 | 1004.6 |
| 20260505011138 | 52 | 270 | 4.3 | 7.0 | 0.00 | 0.01 | 0.01 | 67 | 1004.6 |
| 20260505010517 | 53 | 270 | 6.1 | 11.3 | 0.00 | 0.01 | 0.01 | 67 | 1004.4 |
| 20260505010017 | 53 | 270 | 7.8 | 12.2 | 0.00 | 0.01 | 0.01 | 65 | 1004.5 |
| 20260505005517 | 54 | 270 | 7.0 | 13.9 | 0.00 | 0.01 | 0.01 | 63 | 1004.4 |
| 20260505005017 | 54 | 270 | 6.1 | 11.3 | 0.00 | 0.01 | 0.01 | 61 | 1004.2 |
| 20260505004517 | 54 | 270 | 4.3 | 7.0 | 0.00 | 0.01 | 0.01 | 61 | 1004.3 |
| 20260505004017 | 55 | 292 | 3.5 | 7.0 | 0.00 | 0.01 | 0.01 | 60 | 1004.1 |
| 20260505003518 | 55 | 292 | 4.3 | 7.8 | 0.00 | 0.01 | 0.01 | 59 | 1004.0 |
| 20260505003016 | 56 | 292 | 4.3 | 11.3 | 0.00 | 0.01 | 0.01 | 59 | 1003.9 |
| 20260505002517 | 56 | 292 | 1.7 | 4.3 | 0.00 | 0.01 | 0.01 | 57 | 1003.6 |
| 20260505002017 | 57 | 315 | 0.9 | 5.2 | 0.00 | 0.01 | 0.01 | 54 | 1003.2 |
| 20260505001537 | 57 | 337 | 2.6 | 5.2 | 0.00 | 0.01 | 0.01 | 55 | 1003.2 |
| 20260505001016 | 57 | 315 | 1.7 | 4.3 | 0.00 | 0.01 | 0.01 | 55 | 1003.2 |
| 20260505000517 | 58 | 292 | 2.6 | 6.1 | 0.00 | 0.01 | 0.01 | 54 | 1003.2 |
| 20260505000017 | 58 | 292 | 0.9 | 4.3 | 0.00 | 0.01 | 0.01 | 57 | 1003.0 |
| 20260504235517 | 58 | 337 | 0.9 | 3.5 | 0.01 | 0.01 | 0.01 | 56 | 1003.1 |
| 20260504235017 | 58 | 0.0 | 1.7 | 0.01 | 0.01 | 0.01 | 60 | 1003.1 | |
| 20260504234537 | 58 | 315 | 0.9 | 2.6 | 0.01 | 0.01 | 0.01 | 63 | 1003.1 |
| 20260504234017 | 58 | 337 | 0.9 | 3.5 | 0.01 | 0.01 | 0.01 | 60 | 1002.9 |
| 20260504233518 | 58 | 0 | 0.9 | 3.5 | 0.01 | 0.01 | 0.01 | 58 | 1002.8 |
| 20260504233017 | 58 | 45 | 0.9 | 2.6 | 0.01 | 0.01 | 0.01 | 54 | 1002.6 |
| 20260504232556 | 58 | 292 | 0.9 | 1.7 | 0.01 | 0.01 | 0.01 | 57 | 1003.0 |
| 20260504232037 | 57 | 292 | 0.9 | 1.7 | 0.01 | 0.01 | 0.01 | 58 | 1003.1 |
| 20260504231516 | 57 | 0.0 | 0.0 | 0.01 | 0.01 | 0.01 | 66 | 1003.2 | |
| 20260504231017 | 56 | 292 | 0.9 | 3.5 | 0.01 | 0.01 | 0.01 | 66 | 1003.2 |
| 20260504230536 | 55 | 337 | 1.7 | 2.6 | 0.01 | 0.01 | 0.01 | 66 | 1003.0 |
| 20260504230037 | 55 | 270 | 3.5 | 5.2 | 0.01 | 0.01 | 0.01 | 59 | 1003.0 |
| 20260504225517 | 57 | 247 | 5.2 | 9.6 | 0.00 | 0.00 | 0.00 | 56 | 1003.3 |
| 20260504225016 | 60 | 247 | 7.8 | 12.2 | 0.00 | 0.00 | 0.00 | 50 | 1003.0 |
| 20260504224517 | 60 | 270 | 5.2 | 9.6 | 0.00 | 0.00 | 0.00 | 42 | 1002.7 |
| 20260504224036 | 60 | 270 | 2.6 | 5.2 | 0.00 | 0.00 | 0.00 | 41 | 1002.4 |
| 20260504223516 | 60 | 292 | 2.6 | 6.1 | 0.00 | 0.00 | 0.00 | 41 | 1002.3 |
| 20260504223016 | 61 | 315 | 1.7 | 3.5 | 0.00 | 0.00 | 0.00 | 41 | 1002.0 |
| 20260504222537 | 61 | 0 | 1.7 | 3.5 | 0.00 | 0.00 | 0.00 | 39 | 1002.0 |
| 20260504222016 | 61 | 337 | 3.5 | 7.0 | 0.00 | 0.00 | 0.00 | 39 | 1002.1 |
| 20260504221517 | 62 | 337 | 4.3 | 7.0 | 0.00 | 0.00 | 0.00 | 38 | 1002.0 |
| 20260504221016 | 62 | 0 | 5.2 | 7.8 | 0.00 | 0.00 | 0.00 | 39 | 1001.8 |
| 20260504220537 | 62 | 0 | 4.3 | 7.8 | 0.00 | 0.00 | 0.00 | 39 | 1001.6 |
| 20260504220036 | 63 | 0 | 4.3 | 8.7 | 0.00 | 0.00 | 0.00 | 40 | 1001.3 |
| 20260504215517 | 63 | 0 | 4.3 | 8.7 | 0.00 | 0.00 | 0.00 | 39 | 1001.4 |
| 20260504215016 | 63 | 22 | 2.6 | 5.2 | 0.00 | 0.00 | 0.00 | 40 | 1001.5 |
| 20260504214517 | 62 | 45 | 3.5 | 7.8 | 0.00 | 0.00 | 0.00 | 40 | 1001.7 |
| 20260504214017 | 62 | 45 | 4.3 | 7.8 | 0.00 | 0.00 | 0.00 | 42 | 1001.9 |
| 20260504213516 | 62 | 67 | 4.3 | 9.6 | 0.00 | 0.00 | 0.00 | 43 | 1002.1 |
| 20260504213036 | 62 | 67 | 4.3 | 11.3 | 0.00 | 0.00 | 0.00 | 41 | 1002.3 |
| 20260504212516 | 61 | 67 | 6.1 | 11.3 | 0.00 | 0.00 | 0.00 | 47 | 1002.6 |
| 20260504212016 | 60 | 90 | 5.2 | 9.6 | 0.00 | 0.00 | 0.00 | 47 | 1002.7 |
| 20260504211516 | 59 | 22 | 4.3 | 10.4 | 0.00 | 0.00 | 0.00 | 44 | 1002.9 |
| 20260504211036 | 59 | 0 | 5.2 | 13.0 | 0.00 | 0.00 | 0.00 | 43 | 1003.2 |
| 20260504210517 | 60 | 337 | 7.0 | 13.0 | 0.00 | 0.00 | 0.00 | 46 | 1003.3 |
| 20260504210016 | 61 | 337 | 5.2 | 10.4 | 0.00 | 0.00 | 0.00 | 39 | 1003.2 |
| 20260504205516 | 61 | 315 | 3.5 | 7.8 | 0.00 | 0.00 | 0.00 | 39 | 1002.9 |
| 20260504205016 | 61 | 337 | 2.6 | 7.0 | 0.00 | 0.00 | 0.00 | 40 | 1003.0 |
| 20260504204516 | 62 | 337 | 4.3 | 11.3 | 0.00 | 0.00 | 0.00 | 38 | 1002.8 |
| 20260504204016 | 63 | 337 | 6.1 | 10.4 | 0.00 | 0.00 | 0.00 | 34 | 1002.4 |
| 20260504203516 | 63 | 315 | 4.3 | 10.4 | 0.00 | 0.00 | 0.00 | 33 | 1002.3 |
| 20260504203017 | 63 | 337 | 6.1 | 10.4 | 0.00 | 0.00 | 0.00 | 33 | 1002.0 |
| 20260504202516 | 63 | 337 | 7.8 | 20.9 | 0.00 | 0.00 | 0.00 | 33 | 1001.8 |
| 20260504202016 | 64 | 337 | 10.4 | 20.0 | 0.00 | 0.00 | 0.00 | 32 | 1001.3 |
| 20260504201516 | 65 | 337 | 9.6 | 17.4 | 0.00 | 0.00 | 0.00 | 31 | 1001.4 |
| 20260504201017 | 68 | 315 | 10.4 | 18.2 | 0.00 | 0.00 | 0.00 | 28 | 1001.7 |
| 20260504200516 | 70 | 315 | 6.1 | 12.2 | 0.00 | 0.00 | 0.00 | 24 | 1001.6 |
| 20260504200016 | 71 | 315 | 5.2 | 11.3 | 0.00 | 0.00 | 0.00 | 24 | 1001.7 |
| 20260504195536 | 72 | 337 | 4.3 | 13.9 | 0.00 | 0.00 | 0.00 | 24 | 1001.7 |
| 20260504195016 | 71 | 270 | 5.2 | 12.2 | 0.00 | 0.00 | 0.00 | 25 | 1001.6 |
| 20260504194516 | 72 | 270 | 6.1 | 10.4 | 0.00 | 0.00 | 0.00 | 25 | 1001.6 |
| 20260504194018 | 73 | 270 | 6.1 | 11.3 | 0.00 | 0.00 | 0.00 | 23 | 1001.6 |
| 20260504193516 | 73 | 270 | 6.1 | 11.3 | 0.00 | 0.00 | 0.00 | 25 | 1001.6 |
| 20260504193037 | 73 | 247 | 7.0 | 12.2 | 0.00 | 0.00 | 0.00 | 24 | 1001.6 |
| 20260504192516 | 73 | 270 | 7.8 | 19.1 | 0.00 | 0.00 | 0.00 | 23 | 1001.8 |
| 20260504192016 | 74 | 270 | 9.6 | 19.1 | 0.00 | 0.00 | 0.00 | 23 | 1001.8 |
| 20260504191517 | 73 | 270 | 9.6 | 19.1 | 0.00 | 0.00 | 0.00 | 25 | 1001.9 |
| 20260504191016 | 73 | 247 | 7.0 | 13.0 | 0.00 | 0.00 | 0.00 | 23 | 1001.9 |
| 20260504190516 | 72 | 247 | 7.0 | 12.2 | 0.00 | 0.00 | 0.00 | 24 | 1002.0 |
| 20260504190016 | 72 | 247 | 8.7 | 13.9 | 0.00 | 0.00 | 0.00 | 24 | 1001.8 |
| 20260504185536 | 72 | 247 | 11.3 | 16.5 | 0.00 | 0.00 | 0.00 | 23 | 1002.0 |
| 20260504185016 | 72 | 247 | 10.4 | 14.8 | 0.00 | 0.00 | 0.00 | 23 | 1002.0 |
| 20260504184516 | 72 | 225 | 11.3 | 14.8 | 0.00 | 0.00 | 0.00 | 22 | 1002.0 |
| 20260504184016 | 73 | 225 | 10.4 | 17.4 | 0.00 | 0.00 | 0.00 | 23 | 1002.0 |
| 20260504183516 | 73 | 225 | 11.3 | 15.6 | 0.00 | 0.00 | 0.00 | 23 | 1002.1 |
| 20260504183016 | 72 | 247 | 10.4 | 15.6 | 0.00 | 0.00 | 0.00 | 23 | 1002.2 |
| 20260504182516 | 72 | 225 | 12.2 | 15.6 | 0.00 | 0.00 | 0.00 | 24 | 1002.2 |
| 20260504182016 | 71 | 225 | 11.3 | 17.4 | 0.00 | 0.00 | 0.00 | 25 | 1002.4 |
| 20260504181536 | 71 | 225 | 12.2 | 18.2 | 0.00 | 0.00 | 0.00 | 24 | 1002.4 |
| 20260504181016 | 70 | 247 | 11.3 | 15.6 | 0.00 | 0.00 | 0.00 | 24 | 1002.4 |
| 20260504180516 | 71 | 225 | 10.4 | 18.2 | 0.00 | 0.00 | 0.00 | 24 | 1002.4 |
| 20260504180016 | 70 | 225 | 11.3 | 16.5 | 0.00 | 0.00 | 0.00 | 25 | 1002.5 |
| 20260504175516 | 70 | 225 | 11.3 | 15.6 | 0.00 | 0.00 | 0.00 | 26 | 1002.5 |
| 20260504175137 | 69 | 225 | 9.6 | 13.9 | 0.00 | 0.00 | 0.00 | 26 | 1002.7 |
| 20260504174516 | 69 | 202 | 8.7 | 12.2 | 0.00 | 0.00 | 0.00 | 26 | 1002.9 |
| 20260504174016 | 68 | 180 | 5.2 | 10.4 | 0.00 | 0.00 | 0.00 | 27 | 1003.1 |
| 20260504173516 | 67 | 202 | 2.6 | 6.1 | 0.00 | 0.00 | 0.00 | 28 | 1003.2 |
| 20260504173016 | 67 | 202 | 3.5 | 5.2 | 0.00 | 0.00 | 0.00 | 29 | 1003.1 |
| 20260504172537 | 67 | 180 | 3.5 | 5.2 | 0.00 | 0.00 | 0.00 | 29 | 1003.1 |
| 20260504172017 | 66 | 180 | 5.2 | 9.6 | 0.00 | 0.00 | 0.00 | 29 | 1003.0 |
| 20260504171536 | 66 | 180 | 5.2 | 7.8 | 0.00 | 0.00 | 0.00 | 29 | 1003.1 |
| 20260504171016 | 66 | 180 | 6.1 | 10.4 | 0.00 | 0.00 | 0.00 | 28 | 1003.1 |
| 20260504170536 | 65 | 180 | 6.1 | 9.6 | 0.00 | 0.00 | 0.00 | 28 | 1003.1 |
| 20260504151016 | 65 | 225 | 11.3 | 16.5 | 0.00 | 0.00 | 0.00 | 26 | 1003.4 |
| 20260504150515 | 65 | 225 | 8.7 | 12.2 | 0.00 | 0.00 | 0.00 | 27 | 1003.5 |
| 20260504141017 | 58 | 157 | 2.6 | 3.5 | 0.00 | 0.00 | 0.00 | 32 | 1003.5 |
| 20260504140515 | 58 | 180 | 3.5 | 4.3 | 0.00 | 0.00 | 0.00 | 31 | 1003.4 |
| 20260504130517 | 52 | 202 | 6.1 | 8.7 | 0.00 | 0.00 | 0.00 | 32 | 1003.4 |
| 20260504110517 | 39 | 0.0 | 0.0 | 0.00 | 0.00 | 0.00 | 53 | 1002.8 | |
| 20260504100517 | 39 | 0.0 | 0.0 | 0.00 | 0.00 | 0.00 | 51 | 1003.0 | |
| 20260504081516 | 47 | 247 | 1.7 | 2.6 | 0.00 | 0.00 | 0.00 | 38 | 1004.0 |
| 20260504081017 | 47 | 247 | 0.9 | 1.7 | 0.00 | 0.00 | 0.00 | 38 | 1004.1 |
| 20260504080517 | 47 | 247 | 0.9 | 1.7 | 0.00 | 0.00 | 0.00 | 38 | 1004.3 |